sat.trackr.live / text

‹ back to catalog

ELEKTRO-L 3

NORAD 44903 · 2019-095A

PAYLOAD ACTIVE UNKNOWN

§ Identity

Operator
Country
CIS
Launch date
2019-12-24
Launch site
TYMSC
Launch vehicle
Mass (kg)
RCS (m²)

Purposes: comms, earth_obs

External: N2YO · Heavens-Above · Gunter

§ Orbital elements

Epoch: 2026-09-20T03:29:19.152384Z

Period
1,448.59 min
Inclination
0.4947°
Eccentricity
0.0003147
Mean motion
0.99407031 rev/d
Perigee alt
36,017.4 km
Apogee alt
36,044.1 km
Semi-major
42,408.9 km
B*
0.0000e+0
RAAN
82.3521°
Arg perigee
73.3262°
Mean anomaly
309.0570°
Rev number
2,466

§ Raw data

ELEKTRO-L 31 44903U 19095A   26263.14536056  .00000112  00000+0  00000+0 0  99952 44903   0.4947  82.3521 0003147  73.3262 309.0570  0.99407031 24660

JSON: /api/v1/satellites/44903 · /tle

For live sub-satellite position, see the globe view (requires WebGL).

§ Visibility from observer

Set your observer location to see the next 7 days of passes ≥ 10°. The values pass through the URL so the page stays shareable.

No JS? Fill the form by hand. The geolocation button needs JavaScript.

§ Radio — SatNOGS DB

ModeDescriptionDownlinkUplink
BPSK 200 kHz Selected Data RHCP Mode L (2000000bd) 1.693 GHz
FM DCP Downlink RHCP Mode C 7.500 GHz
BPSK PMT-A3 DCP/Selected Data Linear Mode L (2000000 bd) 1.697 GHz
BPSK Data Relay LHCP Mode L (200000) 1.545 GHz
FM Inter-satellite telecommand RHCP Mode U 465.000 MHz
BPSK LRIT Bandwidth 200 kHz Rate 64/128 kbps 1.691 GHz
FM TLM RHCP Mode S 3.406 GHz

7 transmitters · refreshed weekly from db.satnogs.org